Theta_e
355 351 351 351 348 348 348 349 357 361 360 362 363 362 362 354 355 361 359 360 361 354
355 355 352 356 356 353 356 351 356 360 360 361 362 362 364 356 359 361 359 356 359 356
353 355 355 356 357 356 355 358 357 360 360 360 362 361 364 357 360 360 357 354 357 359
353 353 355 354 356 358 359 360 362 362 361 360 361 359 360 360 359 360 360 359 356 359
354 354 352 354 355 357 358 357 356 359 359 360 360 362 360 357 355 356 357 357 359 357
353 353 353 353 355 356 357 358 353 356 357 358 357 356 357 358 356 356 358 357 357 357
353 353 353 355 356 356 358 357 358 356 356 357 357 356 356 355 357 359 358 358 358 358
356 357 357 357 357 358 357 358 358 357 359 359 354 353 357 357 357 357 358 357 358 358
357 357 359 359 359 360 358 358 358 357 357 357 353 340 339 350 354 356 359 356 357 359
353 353 353 355 358 358 358 358 358 357 357 356 358 338 334 339 354 354 356 357 357 355
347 347 349 352 354 355 356 357 358 359 360 358 357 336 332 336 356 356 356 359 358 361
348 342 346 342 347 354 355 355 355 356 356 356 357 329 328 336 355 355 357 361 360 357
345 346 343 345 344 342 346 347 346 348 347 338 351 320 322 332 350 353 357 360 350 325
345 342 343 338 339 340 341 341 341 338 335 334 327 330 317 318 342 348 349 350 348 341
Wind_Speed
14 11 10 12 9 9 8 7 5 7 8 8 7 6 5 6 7 5 6 5 5 7
13 14 12 10 10 8 6 6 7 8 9 9 8 8 7 7 6 5 6 6 6 8
15 14 14 11 11 10 8 9 8 9 9 9 8 8 8 8 8 7 7 8 7 7
14 15 14 13 13 12 10 10 9 9 9 10 9 9 9 10 8 8 8 9 7 8
14 14 15 15 14 12 12 11 11 10 8 9 10 8 9 10 10 11 10 10 11 10
14 14 15 14 14 14 13 12 12 11 10 9 8 9 10 10 11 12 13 11 9 11
14 14 14 13 13 13 13 13 12 11 12 10 10 10 11 11 11 11 11 11 9 12
11 12 12 12 13 14 14 13 13 13 12 12 11 10 11 10 10 11 11 11 10 11
6 10 11 11 12 12 13 14 14 13 12 12 10 11 11 10 11 12 10 10 12 12
6 8 9 9 11 11 12 12 13 13 13 13 13 8 9 11 12 12 11 12 12 12
4 5 6 9 11 11 9 10 11 11 11 12 11 8 9 10 12 12 13 13 14 12
7 5 6 5 5 6 7 8 8 9 10 10 10 6 1 6 11 12 13 12 13 12
4 8 6 7 4 1 4 5 4 3 3 5 6 8 4 4 8 11 8 9 6 7
6 6 7 4 2 3 5 5 4 2 1 2 5 4 6 7 7 8 7 5 4 4
Wind_Direction
204 210 213 215 227 210 222 209 197 208 230 221 222 219 213 223 236 206 229 238 279 289
202 217 214 236 205 229 226 241 219 226 227 229 226 228 225 243 220 251 233 233 236 255
204 209 221 221 221 243 241 227 254 213 227 234 228 232 235 245 212 238 248 240 242 260
205 210 212 219 224 228 234 244 236 238 243 236 230 229 231 244 271 232 244 262 262 248
211 212 211 216 220 230 233 229 237 236 240 250 247 224 229 244 261 232 244 250 254 254
213 212 218 216 221 223 228 227 231 238 233 234 233 244 244 246 253 259 246 250 256 256
217 224 223 219 220 227 225 227 218 227 245 244 240 245 252 257 251 255 246 248 250 260
227 228 232 228 221 219 226 226 230 227 224 232 241 238 230 245 259 266 259 263 256 253
228 232 227 230 224 221 220 224 230 231 236 237 236 232 191 228 246 251 252 263 264 267
234 244 242 237 231 225 221 222 224 233 240 244 246 223 194 200 250 262 258 267 266 270
208 232 246 240 231 231 231 229 230 233 234 242 248 235 218 217 251 257 256 256 259 259
236 186 194 205 249 233 231 214 217 234 243 244 251 83 292 227 251 249 250 248 254 261
247 225 246 224 206 287 265 273 312 296 1 9 294 59 13 257 273 262 247 241 165 62
193 206 205 222 163 241 238 245 229 185 111 66 52 49 1 322 271 262 260 260 170 131